This is the latest recevied weather packets stored in our database for station/object LA9TLA-1. If no packets are shown the sender has not sent any weather packets the latest 10 day(s).
| Time | Temp. | Humidity | Pressure | Rain* | Wind** | Luminosity | Snow |
|---|---|---|---|---|---|---|---|
| 1777589868 | 3.89° C | 99% | 1038.3 hPa | 0 mm | - | - | - |
| 1777588068 | 4.44° C | 99% | 1038.8 hPa | 0 mm | - | - | - |
| 1777586266 | 4.44° C | 99% | 1038.6 hPa | 0 mm | - | - | - |
| 1777584472 | 5° C | 99% | 1038.6 hPa | 0 mm | - | - | - |
| 1777582667 | 5.56° C | 99% | 1039 hPa | 0 mm | - | - | - |
| 1777580866 | 5.56° C | 99% | 1039.1 hPa | 0 mm | - | - | - |
| 1777579066 | 6.11° C | 99% | 1039.1 hPa | 0 mm | - | - | - |
| 1777577267 | 7.22° C | 99% | 1039 hPa | 0 mm | - | - | - |
| 1777573668 | 8.89° C | 99% | 1039 hPa | 0 mm | - | - | - |
| 1777571866 | 8.89° C | 99% | 1039.5 hPa | 0 mm | - | - | - |
| 1777570067 | 10° C | 99% | 1039.5 hPa | 0 mm | - | - | - |
| 1777568266 | 10° C | 99% | 1040 hPa | 0 mm | - | - | - |
| 1777566469 | 10.56° C | 99% | 1040 hPa | 0 mm | - | - | - |
| 1777564666 | 10° C | 99% | 1040.5 hPa | 0 mm | - | - | - |
| 1777562870 | 8.33° C | 99% | 1040.6 hPa | 0 mm | - | - | - |
| 1777561066 | 8.89° C | 99% | 1040.6 hPa | 0 mm | - | - | - |
| 1777559264 | 8.89° C | 99% | 1041 hPa | 0 mm | - | - | - |
| 1777555667 | 8.33° C | 99% | 1041.5 hPa | 0 mm | - | - | - |
| 1777553865 | 7.78° C | 99% | 1041.5 hPa | 0 mm | - | - | - |
| 1777552065 | 7.78° C | 99% | 1041.6 hPa | 0 mm | - | - | - |
| 1777550267 | 7.78° C | 99% | 1041.6 hPa | 0 mm | - | - | - |
| 1777548470 | 7.78° C | 99% | 1041.9 hPa | 0 mm | - | - | - |
| 1777546668 | 7.78° C | 99% | 1041.8 hPa | 0 mm | - | - | - |
| 1777544867 | 7.78° C | 99% | 1041.5 hPa | 0 mm | - | - | - |
| 1777543068 | 7.22° C | 99% | 1041.5 hPa | 0 mm | - | - | - |
* Rain latest hour (hover to see other rain measurements)
** Current wind speed in m/s (hover to see current wind gust speed)